Location: Melbourne
(37.8170°S, 144.9670°E)
Time: 11:00:36
(UTC+11:00)

ISS - All Passes

Search period start: 25 February 2017 00:00
Search period end: 07 March 2017 00:00
Orbit: 399 x 408 km, 51.6° (Epoch: 25 February)

Date Brightness Start Highest point End Pass type
(mag) Time Alt. Az. Time Alt. Az. Time Alt. Az.
25 Feb - 03:25:50 10° SSW 03:28:43 26° SSE 03:31:36 10° E night (unlit)
25 Feb - 05:02:11 10° WSW 05:05:12 32° NW 05:08:12 10° NNE night (unlit)
25 Feb - 20:04:55 10° N 20:07:13 18° NE 20:09:32 10° E daylight
25 Feb - 21:40:18 10° WNW 21:43:27 41° SW 21:46:37 10° SE visible
25 Feb - 23:19:41 10° SSW 23:20:37 11° SSW 23:21:35 10° S visible
26 Feb - 02:33:41 10° SSW 02:36:00 17° SSE 02:38:20 10° ESE night (unlit)
26 Feb - 04:09:28 10° SW 04:12:47 70° NW 04:16:03 10° NE night (unlit)
26 Feb - 20:47:36 10° NW 20:50:53 82° SW 20:54:12 10° SE visible
26 Feb - 22:25:49 10° WSW 22:27:47 15° SSW 22:29:45 10° SSE visible
27 Feb - 01:41:40 10° S 01:43:12 13° SSE 01:44:44 10° SE night (unlit)
27 Feb - 03:16:57 10° SW 03:20:15 57° SE 03:23:31 10° ENE night (unlit)
27 Feb - 04:54:45 10° W 04:56:21 13° NW 04:57:56 10° NNW night (unlit)
27 Feb - 19:55:14 10° NNW 19:58:24 46° NE 20:01:35 10° ESE daylight
27 Feb - 21:32:24 10° W 21:35:01 21° SSW 21:37:38 10° SSE visible
28 Feb - 02:24:36 10° SSW 02:27:37 31° SSE 02:30:37 10° E night (unlit)
28 Feb - 04:01:11 10° WSW 04:04:01 26° NW 04:06:48 10° N night (unlit)
28 Feb - 19:03:22 10° N 19:05:59 22° NE 19:08:38 10° ESE daylight
28 Feb - 20:39:15 10° W 20:42:18 34° SSW 20:45:22 10° SE visible
28 Feb - 22:19:21 10° SSW 22:19:34 10° SSW 22:19:47 10° S visible
01 Mar - 01:32:22 10° SSW 01:34:54 20° SSE 01:37:25 10° ESE night (unlit)
01 Mar - 03:08:19 10° WSW 03:11:35 54° NW 03:14:47 10° NE night (unlit)
01 Mar - 18:12:38 10° NE 18:13:39 11° NE 18:14:39 10° ENE daylight
01 Mar - 19:46:24 10° WNW 19:49:40 65° SW 19:52:58 10° SE daylight
01 Mar - 21:24:59 10° SW 21:26:40 13° SSW 21:28:22 10° S visible
02 Mar - 00:40:16 10° SSW 00:42:05 14° SSE 00:43:54 10° SE night (unlit)
02 Mar - 02:15:43 10° SW 02:19:02 72° SE 02:22:20 10° NE night (unlit)
02 Mar - 03:54:39 10° WNW 03:55:03 10° NW 03:55:26 10° NW night (unlit)
02 Mar - 18:53:53 10° NW 18:57:07 59° NE 19:00:23 10° ESE daylight
02 Mar - 20:31:24 10° WSW 20:33:49 19° SSW 20:36:16 10° SSE visible
02 Mar - 23:48:33 10° S 23:49:10 10° SSE 23:49:48 10° SSE visible
03 Mar - 01:23:17 10° SW 01:26:24 37° SSE 01:29:30 10° ENE night (unlit)
03 Mar - 03:00:08 10° W 03:02:41 21° NW 03:05:13 10° N night (unlit)
03 Mar - 18:01:48 10° NNW 18:04:38 28° NE 18:07:31 10° ESE daylight
03 Mar - 19:38:07 10° W 19:41:03 29° SSW 19:44:01 10° SSE daylight
04 Mar - 00:30:58 10° SSW 00:33:40 22° SSE 00:36:21 10° E night (unlit)
04 Mar - 02:07:05 10° WSW 02:10:15 42° NW 02:13:23 10° NNE night (unlit)
04 Mar - 17:10:26 10° NNE 17:12:14 14° NE 17:14:03 10° E daylight
04 Mar - 18:45:08 10° WNW 18:48:21 52° SW 18:51:37 10° SE daylight
04 Mar - 20:24:03 10° SW 20:25:26 12° SSW 20:26:50 10° S visible
04 Mar - 23:38:46 10° SSW 23:40:50 15° SSE 23:42:53 10° ESE visible
05 Mar - 01:14:22 10° SW 01:17:42 89° SSE 01:20:59 10° NE night (unlit)
05 Mar - 17:52:28 10° NW 17:55:44 76° NE 17:59:02 10° SE daylight
05 Mar - 19:30:18 10° WSW 19:32:32 17° SSW 19:34:46 10° SSE daylight
05 Mar - 22:46:48 10° S 22:47:55 11° SSE 22:49:01 10° SE visible
06 Mar - 00:21:51 10° SW 00:25:03 44° SE 00:28:14 10° ENE night (unlit)
06 Mar - 01:59:04 10° W 02:01:15 17° NW 02:03:25 10° N night (unlit)
06 Mar - 17:00:10 10° NNW 17:03:11 35° NE 17:06:15 10° ESE daylight
06 Mar - 18:36:53 10° W 18:39:42 25° SSW 18:42:31 10° SSE daylight
06 Mar - 23:29:27 10° SSW 23:32:19 26° SSE 23:35:08 10° E visible
